User: anonymous   Login
Location: Unspecified
(0.0000°N, 0.0000°E)
Time: 13:08:34
(UTC+02:00)
Language:

AO-40 - Orbit

View from above orbital plane
View from above orbital plane
View from above satellite
View from above satellite

Ground track
Ground track

The orbit data is extracted from the following two-line orbital elements,

1 26609U 00072B   16125.42650486 -.00000181  00000-0  00000+0 0  9992
2 26609   8.5471 305.3581 7970265 335.2184   1.4272  1.25586906 71205
Epoch (UTC): 04 May 2016 10:14:10
Eccentricity: 0.7970265
inclination: 8.5471°
perigee height: 987 km
apogee height: 58833 km
right ascension of ascending node: 305.3581°
argument of perigee: 335.2184°
revolutions per day: 1.25586906
mean anomaly at epoch: 1.4272°
orbit number at epoch: 7120

The dashed part of the orbit path shows where the satellite is in the earth's shadow,  

DLR